GW3250 Weather Reports


Display with metric or nautical units.
time (UTC)temp
F
wind
direction
speed
MPH
gust
MPH
rain 1hr
in
rain 24hr
in
rain mn
in
humidity
%
barometer
mb
20260904200936 80 145 0.0 0.0 0.00 0.32 0.32 66 1010.6
20260904200434 80 75 1.0 2.0 0.00 0.32 0.32 64 1010.6
20260904195930 79 234 1.0 1.0 0.00 0.32 0.32 66 1010.7
20260904195428 79 165 2.0 3.0 0.00 0.32 0.32 64 1010.7
20260904194927 79 244 0.0 1.0 0.00 0.32 0.32 68 1010.6
20260904194427 79 213 3.0 3.0 0.00 0.32 0.32 68 1010.7
20260904193922 78 202 2.0 3.0 0.00 0.32 0.32 66 1010.5
20260904193418 78 203 4.0 6.0 0.00 0.32 0.32 64 1010.5
20260904192913 80 204 5.0 8.0 0.00 0.32 0.32 64 1010.9
20260904192409 78 180 2.0 2.0 0.00 0.32 0.32 67 1010.8
20260904191905 78 174 5.0 6.0 0.00 0.32 0.32 65 1010.8
20260904191401 78 206 4.0 7.0 0.00 0.32 0.32 73 1011.0
20260904190857 79 155 1.0 2.0 0.00 0.32 0.32 67 1011.0
20260904190352 79 66 1.0 1.0 0.00 0.32 0.32 68 1010.8
20260904185849 80 135 1.0 1.0 0.00 0.32 0.32 68 1010.8
20260904185344 78 173 1.0 2.0 0.00 0.32 0.32 66 1010.9
20260904184844 79 166 1.0 2.0 0.00 0.32 0.32 67 1011.0
20260904184339 79 152 0.0 0.0 0.00 0.32 0.32 70 1011.2
20260904183834 79 183 2.0 3.0 0.00 0.32 0.32 64 1011.2
20260904183329 80 16 1.0 1.0 0.00 0.32 0.32 68 1011.2
20260904182824 79 197 2.0 2.0 0.00 0.32 0.32 70 1011.4
20260904182319 79 194 1.0 2.0 0.00 0.32 0.32 71 1011.1
20260904181815 79 184 0.0 0.0 0.00 0.32 0.32 68 1011.1
20260904181315 79 208 2.0 2.0 0.00 0.32 0.32 71 1011.1
20260904180810 80 126 0.0 0.0 0.00 0.32 0.32 73 1011.6
20260904180305 79 203 2.0 2.0 0.00 0.32 0.32 71 1011.3
20260904175804 77 358 1.0 2.0 0.00 0.32 0.32 71 1011.3
20260904175305 78 180 2.0 3.0 0.00 0.32 0.32 68 1011.1
20260904174758 78 255 2.0 4.0 0.00 0.32 0.32 73 1011.2
20260904174254 77 96 1.0 1.0 0.00 0.32 0.32 77 1011.2
20260904173749 79 103 3.0 4.0 0.00 0.32 0.32 71 1011.2
20260904173244 79 240 2.0 3.0 0.00 0.32 0.32 75 1011.3
20260904172741 78 225 2.0 3.0 0.00 0.32 0.32 73 1011.2
20260904172239 77 120 1.0 2.0 0.00 0.32 0.32 73 1011.2
20260904171734 77 210 1.0 2.0 0.00 0.32 0.32 71 1011.1
20260904171229 77 196 2.0 2.0 0.00 0.32 0.32 74 1011.1
20260904170725 78 141 1.0 2.0 0.00 0.32 0.32 73 1011.4
20260904170221 77 133 2.0 3.0 0.00 0.32 0.32 73 1011.4
20260904165720 78 19 2.0 3.0 0.00 0.32 0.32 73 1011.1
20260904165215 77 62 1.0 1.0 0.00 0.32 0.32 72 1011.1
20260904164709 78 108 0.0 1.0 0.00 0.32 0.32 75 1011.3
20260904164204 77 96 1.0 1.0 0.00 0.32 0.32 79 1011.2
20260904163700 77 86 1.0 1.0 0.00 0.32 0.32 74 1011.4
20260904163155 76 184 3.0 3.0 0.00 0.32 0.32 79 1011.1
20260904162654 76 133 0.0 1.0 0.00 0.32 0.32 77 1011.6
20260904162149 76 81 3.0 4.0 0.00 0.32 0.32 75 1011.5
20260904161645 77 26 0.0 1.0 0.00 0.32 0.32 77 1011.7
20260904161140 77 169 4.0 7.0 0.00 0.32 0.32 72 1011.8
20260904160636 77 74 1.0 2.0 0.00 0.32 0.32 72 1011.7
20260904160131 77 168 2.0 2.0 0.00 0.32 0.32 73 1011.6
20260904155626 77 222 2.0 3.0 0.00 0.32 0.32 73 1011.7
20260904155120 77 74 1.0 1.0 0.00 0.32 0.32 75 1011.7
20260904154613 76 78 2.0 3.0 0.00 0.32 0.32 71 1011.5
20260904154113 74 172 0.0 0.0 0.00 0.32 0.32 79 1011.6
20260904153608 75 104 1.0 1.0 0.00 0.32 0.32 80 1011.7
20260904153104 75 186 1.0 1.0 0.00 0.32 0.32 80 1011.9
20260904152600 75 156 1.0 2.0 0.00 0.32 0.32 81 1011.7
20260904152055 74 227 1.0 2.0 0.00 0.32 0.32 79 1011.7
20260904151550 74 125 2.0 3.0 0.00 0.32 0.32 77 1011.8
20260904151049 74 213 1.0 2.0 0.00 0.32 0.32 84 1011.8
20260904150544 74 167 3.0 3.0 0.00 0.32 0.32 79 1011.8
20260904150039 75 229 2.0 2.0 0.00 0.32 0.32 84 1011.7
20260904145538 76 189 2.0 3.0 0.00 0.32 0.32 81 1011.7
20260904145033 76 136 1.0 2.0 0.00 0.32 0.32 83 1011.8
20260904144529 74 334 1.0 2.0 0.00 0.32 0.32 83 1012.0
20260904144026 75 228 3.0 4.0 0.00 0.32 0.32 81 1011.9
20260904143521 74 251 2.0 3.0 0.00 0.32 0.32 87 1011.8
20260904143018 74 224 2.0 2.0 0.00 0.32 0.32 87 1011.8
20260904142514 74 160 2.0 2.0 0.00 0.32 0.32 82 1011.7
20260904142013 73 156 1.0 2.0 0.00 0.32 0.32 87 1012.0
20260904141508 73 268 1.0 3.0 0.00 0.32 0.32 90 1011.8
20260904141004 73 173 3.0 3.0 0.00 0.32 0.32 87 1011.6
20260904140459 73 155 1.0 1.0 0.00 0.32 0.32 91 1011.8
20260904135958 72 148 1.0 2.0 0.00 0.32 0.32 94 1011.5
20260904135452 71 203 1.0 2.0 0.00 0.32 0.32 97 1011.6
20260904134948 70 197 2.0 3.0 0.00 0.32 0.32 98 1011.8
20260904134443 69 177 1.0 2.0 0.00 0.32 0.32 99 1011.7
20260904133937 69 198 1.0 1.0 0.00 0.32 0.32 99 1011.6
20260904133432 68 194 2.0 2.0 0.00 0.32 0.32 99 1011.6
20260904132928 70 218 4.0 4.0 0.00 0.32 0.32 99 1011.7
20260904132423 69 175 0.0 1.0 0.00 0.32 0.32 99 1011.8
20260904131922 68 177 1.0 1.0 0.00 0.32 0.32 99 1011.5
20260904131418 69 154 1.0 1.0 0.00 0.32 0.32 99 1011.7
20260904130914 68 182 0.0 1.0 0.00 0.32 0.32 99 1011.9
20260904130412 68 193 2.0 2.0 0.00 0.32 0.32 99 1011.4
20260904125907 69 167 0.0 1.0 0.00 0.32 0.32 99 1011.6
20260904125404 69 174 1.0 1.0 0.00 0.32 0.32 99 1011.3
20260904124903 68 174 1.0 1.0 0.00 0.32 0.32 99 1011.4
20260904124400 68 192 2.0 2.0 0.00 0.32 0.32 99 1011.5
20260904123855 68 175 1.0 1.0 0.00 0.32 0.32 99 1011.7
20260904123349 68 174 1.0 1.0 0.00 0.32 0.32 99 1011.6
20260904122844 68 168 1.0 1.0 0.00 0.32 0.32 99 1011.7
20260904122338 68 170 1.0 1.0 0.00 0.32 0.32 99 1011.5
20260904121834 67 153 0.0 0.0 0.00 0.32 0.32 99 1011.6
20260904121330 67 170 1.0 1.0 0.00 0.32 0.32 99 1011.7
20260904120826 67 168 0.0 1.0 0.00 0.32 0.32 99 1011.7
20260904120322 67 168 1.0 1.0 0.00 0.32 0.32 99 1011.7
20260904115816 67 168 1.0 1.0 0.00 0.32 0.32 99 1011.6
20260904115312 66 165 1.0 1.0 0.00 0.32 0.32 99 1011.5
20260904114811 66 165 1.0 1.0 0.00 0.32 0.32 99 1011.5
20260904114306 66 160 0.0 0.0 0.00 0.32 0.32 99 1011.2
20260904113802 66 160 0.0 0.0 0.00 0.32 0.32 99 1011.2
20260904113300 66 161 1.0 1.0 0.00 0.32 0.32 99 1011.4
20260904112755 66 161 1.0 1.0 0.00 0.32 0.32 99 1011.2
20260904112251 66 157 1.0 1.0 0.00 0.32 0.32 99 1011.3
20260904111747 66 157 0.0 0.0 0.00 0.32 0.32 99 1011.1
20260904111242 66 157 0.0 0.0 0.00 0.32 0.32 99 1011.2
20260904110738 66 157 0.0 0.0 0.00 0.32 0.32 99 1011.3
20260904110237 66 156 0.0 0.0 0.00 0.32 0.32 99 1011.2
20260904105732 66 156 0.0 0.0 0.00 0.32 0.32 99 1011.1
20260904105227 66 156 0.0 0.0 0.00 0.32 0.32 99 1010.9
20260904104722 66 156 0.0 0.0 0.00 0.32 0.32 99 1011.0
20260904104218 66 163 0.0 0.0 0.00 0.32 0.32 99 1010.8
20260904103715 66 163 0.0 0.0 0.00 0.32 0.32 99 1011.0
20260904103209 66 163 1.0 1.0 0.00 0.32 0.32 99 1011.0
20260904102705 67 163 0.0 0.0 0.00 0.32 0.32 99 1011.2
20260904102200 66 167 2.0 2.0 0.00 0.32 0.32 99 1011.3
20260904101657 66 159 0.0 0.0 0.00 0.32 0.32 99 1010.8
20260904101152 66 159 1.0 1.0 0.00 0.32 0.32 99 1011.1
20260904100648 66 159 0.0 0.0 0.00 0.32 0.32 99 1011.1
20260904100143 66 159 0.0 1.0 0.00 0.32 0.32 99 1010.9
20260904095643 66 168 2.0 2.0 0.00 0.32 0.32 99 1010.9
20260904095137 66 172 0.0 1.0 0.00 0.32 0.32 99 1010.9
20260904094632 66 169 1.0 1.0 0.00 0.32 0.32 99 1010.9
20260904094127 66 170 1.0 2.0 0.00 0.32 0.32 99 1010.9
20260904093624 66 155 1.0 1.0 0.00 0.32 0.32 99 1010.6
20260904093124 66 166 1.0 1.0 0.00 0.32 0.32 99 1010.6
20260904092620 66 166 0.0 1.0 0.00 0.32 0.32 99 1010.5
20260904092116 66 166 0.0 0.0 0.00 0.32 0.32 99 1010.5
20260904091612 66 166 1.0 1.0 0.00 0.32 0.32 99 1010.4
20260904091111 66 166 0.0 0.0 0.00 0.32 0.32 99 1010.3
20260904090607 66 167 1.0 1.0 0.00 0.32 0.32 99 1010.2
20260904085603 66 154 0.0 0.0 0.00 0.32 0.32 99 1010.2
20260904085057 66 153 0.0 0.0 0.00 0.32 0.32 99 1010.5
20260904084553 67 154 0.0 1.0 0.00 0.32 0.32 99 1010.4
20260904084049 67 154 0.0 1.0 0.00 0.32 0.32 99 1010.4
20260904083544 67 154 1.0 1.0 0.00 0.32 0.32 99 1010.4
20260904083040 67 154 1.0 1.0 0.00 0.32 0.32 99 1010.6
20260904082535 67 154 0.0 1.0 0.00 0.32 0.32 99 1010.5
20260904082036 67 153 1.0 1.0 0.00 0.32 0.32 99 1010.4
20260904081531 67 153 0.0 0.0 0.00 0.32 0.32 99 1010.5
20260904081026 67 153 0.0 1.0 0.00 0.32 0.32 99 1010.3
20260904080522 67 154 1.0 1.0 0.00 0.32 0.32 99 1010.4
20260904080018 67 154 0.0 0.0 0.00 0.32 0.32 99 1010.2
20260904075514 67 153 0.0 1.0 0.00 0.32 0.32 99 1010.3
20260904075009 67 153 1.0 1.0 0.00 0.32 0.32 99 1010.1
20260904074503 67 153 1.0 1.0 0.00 0.32 0.32 99 1010.1
20260904073958 67 153 1.0 2.0 0.00 0.32 0.32 99 1009.8
20260904073454 67 155 1.0 2.0 0.00 0.32 0.32 99 1009.7
20260904072949 67 152 0.0 0.0 0.00 0.32 0.32 99 1009.8
20260904072444 67 152 0.0 0.0 0.00 0.32 0.32 99 1009.8
20260904071939 67 152 0.0 0.0 0.00 0.32 0.32 99 1009.9
20260904071435 67 152 0.0 0.0 0.00 0.32 0.32 99 1009.7
20260904070929 67 152 0.0 0.0 0.00 0.32 0.32 99 1009.8
20260904070428 67 152 0.0 0.0 0.00 0.32 0.32 99 1009.7
20260904065922 67 152 1.0 1.0 0.00 0.32 0.32 99 1010.1
20260904065419 67 152 0.0 0.0 0.00 0.32 0.32 99 1009.8
20260904064918 68 152 0.0 0.0 0.00 0.32 0.32 99 1010.1
20260904064415 68 153 0.0 0.0 0.00 0.32 0.32 99 1010.2
20260904063910 68 153 0.0 0.0 0.00 0.32 0.32 99 1010.6
20260904063407 68 153 0.0 1.0 0.00 0.32 0.32 99 1010.7
20260904062901 68 139 1.0 1.0 0.05 0.32 0.32 99 1010.6
20260904062357 68 65 1.0 2.0 0.05 0.32 0.32 99 1010.6
20260904061853 68 120 1.0 1.0 0.07 0.31 0.31 99 1010.6
20260904061349 68 98 4.0 4.0 0.19 0.31 0.31 99 1010.7
20260904060845 68 37 1.0 2.0 0.24 0.30 0.30 99 1011.1
20260904060341 69 157 0.0 0.0 0.12 0.28 0.28 99 1011.1
20260904055836 68 141 0.0 1.0 0.00 0.26 0.26 99 1011.1
20260904055331 68 152 0.0 0.0 0.00 0.26 0.26 99 1010.9
20260904054827 68 138 0.0 0.0 0.07 0.26 0.26 99 1010.5
20260904054323 68 142 1.0 1.0 1.02 0.26 0.26 99 1010.5
20260904053818 69 169 1.0 1.0 1.44 0.25 0.25 99 1010.4
20260904053317 70 129 3.0 3.0 0.90 0.15 0.15 99 1010.9
20260904052813 70 192 1.0 1.0 0.05 0.01 0.01 99 1010.9
20260904052309 70 157 0.0 0.0 0.00 0.00 0.00 99 1010.6
20260904051805 70 157 0.0 0.0 0.00 0.00 0.00 99 1010.6
20260904051300 70 157 0.0 0.0 0.00 0.00 0.00 99 1010.6
20260904050750 70 157 0.0 0.0 0.00 0.00 0.00 99 1010.8
20260904050246 70 157 0.0 0.0 0.00 0.00 0.00 99 1010.7
20260904045741 70 157 0.0 0.0 0.00 0.00 0.00 99 1010.5
20260904045235 70 157 0.0 0.0 0.00 0.00 0.00 99 1010.7
20260904044730 70 157 0.0 0.0 0.00 0.00 0.00 99 1010.5
20260904044221 70 157 0.0 0.0 0.00 0.00 0.00 99 1010.4
20260904043717 70 156 1.0 1.0 0.00 0.00 0.00 99 1010.6
20260904043213 70 157 0.0 0.0 0.00 0.00 0.00 99 1010.7
20260904042708 70 157 0.0 0.0 0.00 0.00 0.00 99 1010.6
20260904042205 70 157 0.0 0.0 0.00 0.00 0.00 99 1010.8
20260904041704 71 157 0.0 0.0 0.00 0.00 0.00 99 1011.0
20260904041201 71 157 0.0 0.0 0.00 0.00 0.00 99 1011.1
20260904040656 71 157 0.0 0.0 0.00 0.00 0.00 99 1011.1
20260904040152 71 157 1.0 1.0 0.00 0.00 0.00 99 1011.1
20260904035648 71 157 0.0 1.0 0.00 0.26 0.26 99 1011.2
20260904035143 71 157 0.0 0.0 0.00 0.26 0.26 99 1011.2
20260904034642 71 157 0.0 0.0 0.00 0.26 0.26 99 1011.4
20260904034138 71 157 0.0 1.0 0.00 0.26 0.26 99 1011.6
20260904033634 70 157 0.0 0.0 0.00 0.26 0.26 99 1011.5
20260904033131 71 157 0.0 0.0 0.00 0.26 0.26 99 1011.4
20260904032626 70 157 0.0 0.0 0.00 0.26 0.26 99 1011.0
20260904032125 70 157 0.0 0.0 0.00 0.26 0.26 99 1011.0
20260904031624 71 157 0.0 0.0 0.00 0.26 0.26 99 1010.9
20260904031120 71 157 1.0 1.0 0.00 0.26 0.26 99 1010.9
20260904030616 71 157 0.0 0.0 0.00 0.26 0.26 99 1010.9
20260904030111 71 157 0.0 1.0 0.00 0.26 0.26 99 1010.7
20260904025607 71 157 0.0 0.0 0.00 0.26 0.26 99 1010.9
20260904025101 71 157 0.0 1.0 0.00 0.26 0.26 99 1011.1
20260904024557 71 157 1.0 1.0 0.00 0.26 0.26 99 1011.4
20260904024052 71 157 0.0 0.0 0.00 0.26 0.26 99 1011.4
20260904023548 71 157 0.0 0.0 0.00 0.26 0.26 99 1011.7
20260904023044 71 157 0.0 1.0 0.00 0.26 0.26 99 1011.6
20260904022539 71 157 0.0 0.0 0.00 0.26 0.26 99 1011.6
20260904022036 71 157 0.0 0.0 0.00 0.26 0.26 99 1011.6
20260904021531 72 156 0.0 0.0 0.24 0.26 0.26 99 1011.7
20260904021026 72 157 0.0 0.0 0.54 0.26 0.26 99 1012.0
20260904020521 72 183 0.0 0.0 0.35 0.23 0.23 99 1012.3
20260904020021 72 187 2.0 3.0 0.00 0.17 0.17 99 1012.3
20260904015515 72 150 0.0 0.0 0.00 0.17 0.17 99 1012.1
20260904015014 72 150 0.0 0.0 0.00 0.17 0.17 99 1012.2
20260904014508 72 150 0.0 0.0 0.00 0.17 0.17 99 1012.2
20260904014004 72 150 0.0 0.0 0.00 0.17 0.17 99 1012.0
20260904013500 72 150 0.0 0.0 0.00 0.17 0.17 99 1012.0
20260904012956 72 150 1.0 1.0 0.00 0.17 0.17 99 1012.1
20260904012456 72 150 1.0 1.0 0.00 0.17 0.17 99 1012.2
20260904011950 72 150 0.0 0.0 0.00 0.17 0.17 99 1012.1
20260904011445 72 149 0.0 0.0 0.00 0.17 0.17 99 1012.1
20260904010940 72 159 0.0 0.0 0.00 0.17 0.17 99 1012.1
20260904010437 72 176 0.0 0.0 0.00 0.17 0.17 99 1012.0
20260904005931 72 178 1.0 1.0 0.00 0.17 0.17 99 1012.2
20260904005427 72 154 1.0 1.0 0.00 0.17 0.17 99 1012.2
20260904004921 72 154 0.0 0.0 0.00 0.17 0.17 99 1012.0
20260904004418 72 154 0.0 1.0 0.00 0.17 0.17 99 1011.7
20260904003913 73 154 0.0 0.0 0.00 0.17 0.17 99 1011.6
20260904003409 72 153 1.0 1.0 0.00 0.17 0.17 99 1011.3
20260904002903 72 152 0.0 0.0 0.00 0.17 0.17 99 1011.3
20260904002400 72 152 1.0 1.0 0.00 0.17 0.17 99 1011.3
20260904001859 72 153 0.0 1.0 0.00 0.17 0.17 99 1011.7
20260904001355 72 152 0.0 0.0 0.00 0.17 0.17 99 1011.7
20260904000849 72 152 0.0 0.0 0.00 0.17 0.17 99 1011.7
20260904000348 72 152 0.0 0.0 0.00 0.17 0.17 99 1011.8
20260903235843 73 152 0.0 0.0 0.00 0.17 0.17 99 1011.6
20260903235339 73 152 0.0 0.0 0.00 0.17 0.17 99 1011.5
20260903234838 72 152 0.0 0.0 0.00 0.17 0.17 99 1011.7
20260903234335 73 152 0.0 0.0 0.00 0.17 0.17 99 1011.5
20260903233831 73 152 0.0 0.0 0.00 0.17 0.17 99 1011.6
20260903233327 73 152 0.0 0.0 0.00 0.17 0.17 99 1011.6
20260903232826 73 152 0.0 0.0 0.00 0.17 0.17 99 1011.4
20260903232321 73 152 0.0 0.0 0.00 0.17 0.17 99 1011.2
20260903231820 73 152 0.0 0.0 0.00 0.17 0.17 99 1011.2
20260903231316 73 152 0.0 0.0 0.00 0.17 0.17 99 1011.4
20260903230811 74 152 0.0 0.0 0.00 0.17 0.17 99 1011.4
20260903230307 74 152 0.0 0.0 0.00 0.17 0.17 99 1011.2
20260903225803 74 152 0.0 0.0 0.00 0.17 0.17 98 1011.1
20260903225258 75 152 0.0 0.0 0.00 0.17 0.17 98 1010.9
20260903224755 75 152 0.0 0.0 0.00 0.17 0.17 97 1011.0
20260903224250 75 145 0.0 0.0 0.00 0.17 0.17 97 1011.1
20260903223746 76 145 0.0 1.0 0.00 0.17 0.17 96 1010.9
20260903223244 76 145 0.0 0.0 0.00 0.17 0.17 96 1011.0
20260903222739 77 145 0.0 0.0 0.00 0.17 0.17 96 1011.2
20260903222238 77 145 0.0 0.0 0.00 0.17 0.17 95 1011.3
20260903221733 77 145 0.0 0.0 0.00 0.17 0.17 94 1011.1
20260903221232 77 145 0.0 0.0 0.00 0.17 0.17 93 1011.3
20260903220730 77 145 0.0 0.0 0.00 0.17 0.17 94 1011.3
20260903220225 78 145 0.0 0.0 0.00 0.17 0.17 92 1011.2
20260903215724 78 145 1.0 1.0 0.00 0.17 0.17 91 1011.4
20260903215220 79 145 1.0 1.0 0.00 0.17 0.17 90 1011.5
20260903214718 78 144 0.0 0.0 0.00 0.17 0.17 90 1011.4
20260903214214 78 144 0.0 0.0 0.00 0.17 0.17 91 1011.4
20260903213708 79 144 0.0 0.0 0.00 0.17 0.17 88 1011.4
20260903213204 80 144 1.0 1.0 0.00 0.17 0.17 86 1011.2
20260903212700 81 144 0.0 0.0 0.00 0.17 0.17 85 1011.4
20260903212156 80 144 0.0 0.0 0.00 0.17 0.17 85 1011.3
20260903211649 80 144 0.0 0.0 0.00 0.17 0.17 86 1011.3
20260903211147 80 144 0.0 0.0 0.00 0.17 0.17 83 1011.4
20260903210642 81 144 0.0 0.0 0.00 0.17 0.17 83 1011.4
20260903210137 83 143 0.0 1.0 0.00 0.17 0.17 79 1011.3
20260903205637 82 212 0.0 1.0 0.00 0.17 0.17 81 1011.2
20260903205130 83 212 0.0 1.0 0.00 0.17 0.17 81 1011.4
20260903204626 81 212 0.0 0.0 0.00 0.17 0.17 84 1011.4
20260903204123 80 211 0.0 1.0 0.00 0.17 0.17 84 1011.5
20260903203617 80 211 0.0 0.0 0.00 0.17 0.17 85 1011.4
20260903203112 80 211 1.0 2.0 0.00 0.17 0.17 85 1011.5
20260903202608 81 209 0.0 0.0 0.00 0.17 0.17 84 1011.3
20260903202102 83 199 1.0 2.0 0.00 0.17 0.17 80 1011.3
20260903201556 83 199 0.0 0.0 0.00 0.17 0.17 80 1011.2